Location: The Saddle
(36.8333°N, 80.3417°W)
Time: 01:47:07
(UTC-05:00)

A-11 Canister half - Pass Details

Date: 13 December 2023
Orbit: 1526 x 1682 km, 47.3° (Epoch: 01 March)

Event Time Altitude Azimuth Distance (km) Brightness Sun altitude
Rises 22:19:47 0° 301° (WNW) 4,935 12.1 -61.6°
Reaches altitude 10° 22:23:00 10° 303° (WNW) 3,939 11.4 -62.2°
Enters shadow 22:24:16 15° 304° (NW) 3,555 11.1 -62.4°
